Simultaneous Nadir Overpasses (SNOs) Predictions

Prediction of SNOs between LANDSAT-8 and METOP-A Satellite Orbit:

Table of predicted SNOs for the next 14.0 days since TLE Epoch: 5/15/2021
Index Date (LANDSAT-8) Time (LANDSAT-8) Lat,Lon (LANDSAT-8) SZA (LANDSAT-8 ) Date (METOP-A) Time (METOP-A) Lat,Lon (METOP-A) SZA (METOP-A ) Distance(km) Time Diff (sec)
1 05/17/2021 00:18:10 81.39,-139.75 64.76 05/17/2021 00:17:06 81.38,-139.65 64.73 2.07 64
2 05/17/2021 01:07:38 -81.37, 27.45 115.32 05/17/2021 01:07:47 -81.38, 27.62 115.29 3.22 9
3 05/19/2021 19:52:27 81.39, -73.30 64.15 05/19/2021 19:51:28 81.38, -73.25 64.12 1.75 59
4 05/19/2021 20:41:55 -81.37, 93.91 115.93 05/19/2021 20:42:09 -81.38, 94.05 115.90 2.41 14
5 05/22/2021 15:26:44 81.39, -6.90 63.58 05/22/2021 15:25:50 81.38, -6.87 63.54 1.59 54
6 05/22/2021 16:16:12 -81.37, 160.34 116.49 05/22/2021 16:16:31 -81.38, 160.46 116.47 1.99 19
7 05/25/2021 11:01:01 81.39, 59.47 63.04 05/25/2021 11:00:12 81.38, 59.49 63.01 1.32 49
8 05/25/2021 11:50:29 -81.37,-133.26 117.02 05/25/2021 11:50:53 -81.38,-133.15 116.99 1.97 24
9 05/28/2021 06:35:17 81.39, 125.81 62.55 05/28/2021 06:34:33 81.38, 125.84 62.53 0.95 44



Historial Predications of SNOs between LANDSAT-8 and METOP-A
